User: anonymous   Login
Location: Unspecified
(0.0000°N, 0.0000°E)
Time: 20:54:30
(UTC+00:00)
Language:

OPTUS 1C - Orbit

View from above orbital plane
View from above orbital plane
View from above satellite
View from above satellite

Ground track
Ground track

The orbit data is extracted from the following two-line orbital elements,

1 27831U 03028B   17113.85605080 -.00000156 +00000-0 +00000-0 0  9992
2 27831 000.0585 124.3896 0002460 283.5917 268.2968 01.00271477050815
Epoch (UTC): 23 April 2017 20:32:42
Eccentricity: 0.0002460
inclination: 0.0585°
perigee height: 35776 km
apogee height: 35796 km
right ascension of ascending node: 124.3896°
argument of perigee: 283.5917°
revolutions per day: 1.00271477
mean anomaly at epoch: 268.2968°
orbit number at epoch: 5081

The dashed part of the orbit path shows where the satellite is in the earth's shadow,  

DLR